Time,TemperatureF,DewpointF,PressureIn,WindDirection,WindDirectionDegrees,WindSpeedMPH,WindSpeedGustMPH,Humidity,HourlyPrecipIn,Conditions,Clouds,dailyrainin,SolarRadiationWatts/m^2,SoftwareType,DateUTC
2013-07-21 00:00:00,76.5,72.3,29.86,South,186,0.0,2.0,87,0.00,,---,0.00,0.00,VWS V14.00,2013-07-21 05:00:00,
2013-07-21 00:01:00,76.5,72.3,29.86,South,186,0.0,0.0,87,0.00,,---,0.00,0.00,VWS V14.00,2013-07-21 05:01:00,
2013-07-21 00:05:00,76.4,71.9,29.86,South,187,1.0,1.0,86,0.00,,---,0.00,0.00,VWS V14.00,2013-07-21 05:05:00,
2013-07-21 00:10:00,76.3,72.2,29.86,South,180,0.0,3.0,87,0.00,,---,0.00,0.00,VWS V14.00,2013-07-21 05:10:00,
2013-07-21 00:14:00,76.2,72.1,29.86,South,179,1.0,3.0,87,0.00,,---,0.00,0.00,VWS V14.00,2013-07-21 05:14:00,
2013-07-21 00:18:00,76.1,71.9,29.87,South,180,0.0,3.0,87,0.00,,---,0.00,0.00,VWS V14.00,2013-07-21 05:18:00,
2013-07-21 00:22:00,76.1,71.9,29.87,South,180,0.0,3.0,87,0.00,,---,0.00,0.00,VWS V14.00,2013-07-21 05:22:00,
2013-07-21 00:26:00,76.0,71.9,29.87,South,180,0.0,3.0,87,0.00,,---,0.00,0.00,VWS V14.00,2013-07-21 05:26:00,
2013-07-21 00:30:00,76.0,71.9,29.87,South,180,0.0,3.0,87,0.00,,---,0.00,0.00,VWS V14.00,2013-07-21 05:30:00,
2013-07-21 00:34:00,75.9,71.8,29.87,South,180,1.0,2.0,87,0.00,,---,0.00,0.00,VWS V14.00,2013-07-21 05:34:00,
2013-07-21 00:38:00,75.8,71.7,29.87,South,180,0.0,2.0,87,0.00,,---,0.00,0.00,VWS V14.00,2013-07-21 05:38:00,
2013-07-21 00:42:00,75.8,72.0,29.87,South,180,0.0,2.0,88,0.00,,---,0.00,0.00,VWS V14.00,2013-07-21 05:42:00,
2013-07-21 00:46:00,75.7,71.9,29.86,South,180,0.0,2.0,88,0.00,,---,0.00,0.00,VWS V14.00,2013-07-21 05:46:00,
2013-07-21 00:50:00,75.7,71.9,29.86,South,180,0.0,2.0,88,0.00,,---,0.00,0.00,VWS V14.00,2013-07-21 05:50:00,
2013-07-21 00:54:00,75.6,71.8,29.86,South,180,0.0,2.0,88,0.00,,---,0.00,0.00,VWS V14.00,2013-07-21 05:54:00,
2013-07-21 00:58:00,75.6,71.8,29.86,South,180,0.0,2.0,88,0.00,,---,0.00,0.00,VWS V14.00,2013-07-21 05:58:00,
2013-07-21 01:00:00,75.6,71.8,29.86,South,180,0.0,2.0,88,0.00,,---,0.00,0.00,VWS V14.00,2013-07-21 06:00:00,
2013-07-21 01:02:00,75.6,72.1,29.86,South,180,0.0,0.0,89,0.00,,---,0.00,0.00,VWS V14.00,2013-07-21 06:02:00,
2013-07-21 01:06:00,75.5,71.7,29.86,South,180,0.0,0.0,88,0.00,,---,0.00,0.00,VWS V14.00,2013-07-21 06:06:00,
2013-07-21 01:10:00,75.5,71.7,29.86,South,169,2.0,2.0,88,0.00,,---,0.00,0.00,VWS V14.00,2013-07-21 06:10:00,
2013-07-21 01:15:00,75.4,71.9,29.86,South,169,1.0,2.0,89,0.00,,---,0.00,0.00,VWS V14.00,2013-07-21 06:15:00,
2013-07-21 01:19:00,75.3,71.5,29.86,SSE,156,1.0,2.0,88,0.00,,---,0.00,0.00,VWS V14.00,2013-07-21 06:19:00,
2013-07-21 01:23:00,75.2,71.7,29.86,SSE,156,3.0,3.0,89,0.00,,---,0.00,0.00,VWS V14.00,2013-07-21 06:23:00,
2013-07-21 01:27:00,75.2,71.7,29.86,SSE,156,0.0,3.0,89,0.00,,---,0.00,0.00,VWS V14.00,2013-07-21 06:27:00,
2013-07-21 01:30:00,75.1,71.6,29.86,SSE,156,0.0,3.0,89,0.00,,---,0.00,0.00,VWS V14.00,2013-07-21 06:30:00,
2013-07-21 01:31:00,75.1,71.6,29.86,SSE,156,0.0,0.0,89,0.00,,---,0.00,0.00,VWS V14.00,2013-07-21 06:31:00,
2013-07-21 01:35:00,75.1,71.6,29.86,SSE,156,0.0,0.0,89,0.00,,---,0.00,0.00,VWS V14.00,2013-07-21 06:35:00,
2013-07-21 01:39:00,75.1,71.6,29.86,SSE,156,0.0,0.0,89,0.00,,---,0.00,0.00,VWS V14.00,2013-07-21 06:39:00,
2013-07-21 01:43:00,75.0,71.5,29.86,SSE,156,0.0,0.0,89,0.00,,---,0.00,0.00,VWS V14.00,2013-07-21 06:43:00,
2013-07-21 01:47:00,75.0,71.5,29.87,SSE,156,0.0,0.0,89,0.00,,---,0.00,0.00,VWS V14.00,2013-07-21 06:47:00,
2013-07-21 01:51:00,75.0,71.9,29.87,SSE,156,0.0,0.0,90,0.00,,---,0.00,0.00,VWS V14.00,2013-07-21 06:51:00,
2013-07-21 01:55:00,74.9,71.4,29.87,SSE,156,0.0,0.0,89,0.00,,---,0.00,0.00,VWS V14.00,2013-07-21 06:55:00,
2013-07-21 01:59:00,74.9,71.4,29.87,SSE,156,0.0,0.0,89,0.00,,---,0.00,0.00,VWS V14.00,2013-07-21 06:59:00,
2013-07-21 02:00:00,74.9,71.4,29.87,SSE,156,0.0,0.0,89,0.00,,---,0.00,0.00,VWS V14.00,2013-07-21 07:00:00,
2013-07-21 02:03:00,74.9,71.4,29.87,SSE,156,0.0,1.0,89,0.00,,---,0.00,0.00,VWS V14.00,2013-07-21 07:03:00,
2013-07-21 02:08:00,74.8,71.7,29.87,SSE,158,0.0,3.0,90,0.00,,---,0.00,0.00,VWS V14.00,2013-07-21 07:08:00,
2013-07-21 02:12:00,74.8,71.7,29.87,SSE,158,0.0,3.0,90,0.00,,---,0.00,0.00,VWS V14.00,2013-07-21 07:12:00,
2013-07-21 02:16:00,74.8,71.7,29.86,SSE,158,0.0,3.0,90,0.00,,---,0.00,0.00,VWS V14.00,2013-07-21 07:16:00,
2013-07-21 02:20:00,74.8,71.7,29.86,SSE,159,2.0,3.0,90,0.00,,---,0.00,0.00,VWS V14.00,2013-07-21 07:20:00,
2013-07-21 02:24:00,74.7,71.6,29.86,SSE,159,0.0,3.0,90,0.00,,---,0.00,0.00,VWS V14.00,2013-07-21 07:24:00,
2013-07-21 02:28:00,74.7,71.6,29.86,SSE,159,1.0,3.0,90,0.00,,---,0.00,0.00,VWS V14.00,2013-07-21 07:28:00,
2013-07-21 02:30:00,74.7,71.6,29.86,SSE,165,2.0,3.0,90,0.00,,---,0.00,0.00,VWS V14.00,2013-07-21 07:30:00,
2013-07-21 02:32:00,74.7,71.6,29.86,SSE,165,3.0,3.0,90,0.00,,---,0.00,0.00,VWS V14.00,2013-07-21 07:32:00,
2013-07-21 02:36:00,74.7,71.6,29.86,SSE,165,1.0,3.0,90,0.00,,---,0.00,0.00,VWS V14.00,2013-07-21 07:36:00,
2013-07-21 02:40:00,74.6,71.5,29.86,SSE,167,2.0,3.0,90,0.00,,---,0.00,0.00,VWS V14.00,2013-07-21 07:40:00,
2013-07-21 02:44:00,74.6,71.5,29.86,South,170,0.0,3.0,90,0.00,,---,0.00,0.00,VWS V14.00,2013-07-21 07:44:00,
2013-07-21 02:48:00,74.6,71.5,29.86,South,175,0.0,4.0,90,0.00,,---,0.00,0.00,VWS V14.00,2013-07-21 07:48:00,
2013-07-21 02:52:00,74.5,71.4,29.86,South,186,1.0,4.0,90,0.00,,---,0.00,0.00,VWS V14.00,2013-07-21 07:52:00,
2013-07-21 02:56:00,74.5,71.4,29.86,South,182,1.0,4.0,90,0.00,,---,0.00,0.00,VWS V14.00,2013-07-21 07:56:00,
2013-07-21 03:00:00,74.4,71.3,29.86,South,190,0.0,5.0,90,0.00,,---,0.00,0.00,VWS V14.00,2013-07-21 08:00:00,
2013-07-21 03:04:00,74.3,71.2,29.86,South,190,0.0,0.0,90,0.00,,---,0.00,0.00,VWS V14.00,2013-07-21 08:04:00,
2013-07-21 03:08:00,74.3,71.5,29.86,South,190,0.0,0.0,91,0.00,,---,0.00,0.00,VWS V14.00,2013-07-21 08:08:00,
2013-07-21 03:12:00,74.3,71.5,29.86,South,190,0.0,2.0,91,0.00,,---,0.00,0.00,VWS V14.00,2013-07-21 08:12:00,
2013-07-21 03:16:00,74.3,71.5,29.87,South,188,0.0,2.0,91,0.00,,---,0.00,0.00,VWS V14.00,2013-07-21 08:16:00,
2013-07-21 03:21:00,74.2,71.4,29.87,South,188,0.0,2.0,91,0.00,,---,0.00,0.00,VWS V14.00,2013-07-21 08:21:00,
2013-07-21 03:25:00,74.2,71.4,29.87,South,188,0.0,2.0,91,0.00,,---,0.00,0.00,VWS V14.00,2013-07-21 08:25:00,
2013-07-21 03:29:00,74.2,71.4,29.87,South,188,0.0,2.0,91,0.00,,---,0.00,0.00,VWS V14.00,2013-07-21 08:29:00,
2013-07-21 03:30:00,74.2,71.4,29.87,South,188,0.0,2.0,91,0.00,,---,0.00,0.00,VWS V14.00,2013-07-21 08:30:00,
2013-07-21 03:33:00,74.2,71.4,29.87,South,188,0.0,1.0,91,0.00,,---,0.00,0.00,VWS V14.00,2013-07-21 08:33:00,
2013-07-21 03:37:00,74.1,71.3,29.87,South,188,0.0,1.0,91,0.00,,---,0.00,0.00,VWS V14.00,2013-07-21 08:37:00,
2013-07-21 03:41:00,74.1,71.3,29.87,South,177,0.0,1.0,91,0.00,,---,0.00,0.00,VWS V14.00,2013-07-21 08:41:00,
2013-07-21 03:45:00,74.1,71.3,29.87,South,177,0.0,3.0,91,0.00,,---,0.00,0.00,VWS V14.00,2013-07-21 08:45:00,
2013-07-21 03:49:00,74.0,71.2,29.87,South,177,1.0,3.0,91,0.00,,---,0.00,0.00,VWS V14.00,2013-07-21 08:49:00,
2013-07-21 03:53:00,74.0,71.2,29.87,SE,146,3.0,3.0,91,0.00,,---,0.00,0.00,VWS V14.00,2013-07-21 08:53:00,
2013-07-21 03:57:00,74.0,71.2,29.87,SE,145,0.0,3.0,91,0.00,,---,0.00,0.00,VWS V14.00,2013-07-21 08:57:00,
2013-07-21 04:00:00,74.0,71.2,29.88,SSE,147,1.0,3.0,91,0.00,,---,0.00,0.00,VWS V14.00,2013-07-21 09:00:00,
2013-07-21 04:01:00,74.0,71.2,29.88,SSE,148,2.0,2.0,91,0.00,,---,0.00,0.00,VWS V14.00,2013-07-21 09:01:00,
2013-07-21 04:05:00,74.0,71.5,29.88,SSE,148,0.0,2.0,92,0.00,,---,0.00,0.00,VWS V14.00,2013-07-21 09:05:00,
2013-07-21 04:09:00,73.9,71.4,29.88,SSE,156,1.0,3.0,92,0.00,,---,0.00,0.00,VWS V14.00,2013-07-21 09:09:00,
2013-07-21 04:13:00,73.9,71.4,29.88,SSE,156,0.0,3.0,92,0.00,,---,0.00,0.00,VWS V14.00,2013-07-21 09:13:00,
2013-07-21 04:17:00,73.9,71.4,29.88,SSE,159,0.0,3.0,92,0.00,,---,0.00,0.00,VWS V14.00,2013-07-21 09:17:00,
2013-07-21 04:22:00,73.9,71.4,29.88,SSE,159,2.0,3.0,92,0.00,,---,0.00,0.00,VWS V14.00,2013-07-21 09:22:00,
2013-07-21 04:26:00,73.8,71.3,29.88,SSE,164,1.0,4.0,92,0.00,,---,0.00,0.00,VWS V14.00,2013-07-21 09:26:00,
2013-07-21 04:30:00,73.8,71.3,29.88,SSE,164,0.0,4.0,92,0.00,,---,0.00,0.00,VWS V14.00,2013-07-21 09:30:00,
2013-07-21 04:34:00,73.9,71.4,29.88,SSE,162,0.0,2.0,92,0.00,,---,0.00,0.00,VWS V14.00,2013-07-21 09:34:00,
2013-07-21 04:38:00,73.9,71.4,29.88,SSE,162,1.0,2.0,92,0.00,,---,0.00,0.00,VWS V14.00,2013-07-21 09:38:00,
2013-07-21 04:42:00,73.9,71.4,29.88,SSE,163,2.0,2.0,92,0.00,,---,0.00,0.00,VWS V14.00,2013-07-21 09:42:00,
2013-07-21 04:46:00,73.9,71.4,29.88,SSE,163,0.0,3.0,92,0.00,,---,0.00,0.00,VWS V14.00,2013-07-21 09:46:00,
2013-07-21 04:50:00,73.9,71.4,29.88,SSE,154,4.0,4.0,92,0.00,,---,0.00,0.00,VWS V14.00,2013-07-21 09:50:00,
2013-07-21 04:54:00,73.9,71.4,29.88,South,175,1.0,4.0,92,0.00,,---,0.00,0.00,VWS V14.00,2013-07-21 09:54:00,
2013-07-21 04:58:00,73.9,71.4,29.88,South,173,2.0,4.0,92,0.00,,---,0.00,0.00,VWS V14.00,2013-07-21 09:58:00,
2013-07-21 05:00:00,73.9,71.4,29.87,South,173,2.0,4.0,92,0.00,,---,0.00,0.00,VWS V14.00,2013-07-21 10:00:00,
2013-07-21 05:02:00,73.9,71.4,29.87,South,175,3.0,3.0,92,0.00,,---,0.00,0.00,VWS V14.00,2013-07-21 10:02:00,
2013-07-21 05:06:00,74.0,71.5,29.87,SSE,167,2.0,3.0,92,0.00,,---,0.00,0.00,VWS V14.00,2013-07-21 10:06:00,
2013-07-21 05:10:00,74.0,71.5,29.87,South,172,1.0,3.0,92,0.00,,---,0.00,0.00,VWS V14.00,2013-07-21 10:10:00,
2013-07-21 05:14:00,74.0,71.5,29.87,SSE,157,2.0,3.0,92,0.00,,---,0.00,0.00,VWS V14.00,2013-07-21 10:14:00,
2013-07-21 05:18:00,74.1,71.6,29.87,South,186,2.0,3.0,92,0.00,,---,0.00,0.00,VWS V14.00,2013-07-21 10:18:00,
2013-07-21 05:22:00,74.1,71.6,29.87,SSW,200,1.0,3.0,92,0.00,,---,0.00,0.00,VWS V14.00,2013-07-21 10:22:00,
2013-07-21 05:26:00,74.1,71.6,29.87,South,175,1.0,3.0,92,0.00,,---,0.00,0.00,VWS V14.00,2013-07-21 10:26:00,
2013-07-21 05:30:00,74.1,71.6,29.88,SSE,157,1.0,3.0,92,0.00,,---,0.00,0.00,VWS V14.00,2013-07-21 10:30:00,
2013-07-21 05:31:00,74.1,71.6,29.88,South,183,2.0,2.0,92,0.00,,---,0.00,0.00,VWS V14.00,2013-07-21 10:31:00,
2013-07-21 05:35:00,74.2,72.1,29.88,SSE,163,3.0,4.0,93,0.00,,---,0.00,0.00,VWS V14.00,2013-07-21 10:35:00,
2013-07-21 05:39:00,74.2,72.1,29.88,South,172,2.0,5.0,93,0.00,,---,0.00,0.00,VWS V14.00,2013-07-21 10:39:00,
2013-07-21 05:43:00,74.2,72.1,29.88,South,178,1.0,5.0,93,0.00,,---,0.00,0.00,VWS V14.00,2013-07-21 10:43:00,
2013-07-21 05:47:00,74.2,72.1,29.88,SSE,163,1.0,5.0,93,0.00,,---,0.00,0.00,VWS V14.00,2013-07-21 10:47:00,
2013-07-21 05:51:00,74.2,72.1,29.88,South,169,0.0,5.0,93,0.00,,---,0.00,0.00,VWS V14.00,2013-07-21 10:51:00,
2013-07-21 05:55:00,74.2,72.1,29.88,South,175,1.0,5.0,93,0.00,,---,0.00,0.00,VWS V14.00,2013-07-21 10:55:00,
2013-07-21 05:59:00,74.3,72.2,29.88,SSE,163,0.0,5.0,93,0.00,,---,0.00,0.00,VWS V14.00,2013-07-21 10:59:00,
2013-07-21 06:00:00,74.2,72.1,29.88,South,169,1.0,5.0,93,0.00,,---,0.00,0.00,VWS V14.00,2013-07-21 11:00:00,
2013-07-21 06:03:00,74.3,72.2,29.88,South,172,1.0,2.0,93,0.00,,---,0.00,5.00,VWS V14.00,2013-07-21 11:03:00,
2013-07-21 06:07:00,74.2,72.1,29.88,South,180,1.0,2.0,93,0.00,,---,0.00,7.00,VWS V14.00,2013-07-21 11:07:00,
2013-07-21 06:11:00,74.3,72.2,29.88,South,185,1.0,2.0,93,0.00,,---,0.00,11.00,VWS V14.00,2013-07-21 11:11:00,
2013-07-21 06:15:00,74.2,72.1,29.88,SSW,206,0.0,2.0,93,0.00,,---,0.00,14.00,VWS V14.00,2013-07-21 11:15:00,
2013-07-21 06:19:00,74.2,72.1,29.88,SSE,162,3.0,3.0,93,0.00,,---,0.00,16.00,VWS V14.00,2013-07-21 11:19:00,
2013-07-21 06:24:00,74.3,72.2,29.88,South,183,3.0,3.0,93,0.00,,---,0.00,19.00,VWS V14.00,2013-07-21 11:24:00,
2013-07-21 06:28:00,74.3,72.2,29.88,South,182,1.0,3.0,93,0.00,,---,0.00,23.00,VWS V14.00,2013-07-21 11:28:00,
2013-07-21 06:30:00,74.3,72.2,29.88,South,190,2.0,3.0,93,0.00,,---,0.00,26.00,VWS V14.00,2013-07-21 11:30:00,
2013-07-21 06:32:00,74.4,72.2,29.88,South,178,2.0,2.0,93,0.00,,---,0.00,30.00,VWS V14.00,2013-07-21 11:32:00,
2013-07-21 06:36:00,74.4,72.2,29.88,South,178,1.0,4.0,93,0.00,,---,0.00,30.00,VWS V14.00,2013-07-21 11:36:00,
2013-07-21 06:40:00,74.4,72.2,29.88,SSE,166,2.0,4.0,93,0.00,,---,0.00,33.00,VWS V14.00,2013-07-21 11:40:00,
2013-07-21 06:44:00,74.5,72.3,29.88,South,180,1.0,4.0,93,0.00,,---,0.00,35.00,VWS V14.00,2013-07-21 11:44:00,
2013-07-21 06:48:00,74.6,72.4,29.88,South,170,2.0,4.0,93,0.00,,---,0.00,39.00,VWS V14.00,2013-07-21 11:48:00,
2013-07-21 06:52:00,74.6,72.4,29.88,South,189,0.0,4.0,93,0.00,,---,0.00,42.00,VWS V14.00,2013-07-21 11:52:00,
2013-07-21 06:56:00,74.7,72.6,29.88,South,172,3.0,4.0,93,0.00,,---,0.00,46.00,VWS V14.00,2013-07-21 11:56:00,
2013-07-21 07:00:00,74.8,72.6,29.88,South,184,1.0,4.0,93,0.00,,---,0.00,56.00,VWS V14.00,2013-07-21 12:00:00,
2013-07-21 07:04:00,74.9,72.7,29.88,South,180,2.0,3.0,93,0.00,,---,0.00,111.00,VWS V14.00,2013-07-21 12:04:00,
2013-07-21 07:08:00,75.1,72.9,29.88,South,177,3.0,3.0,93,0.00,,---,0.00,123.00,VWS V14.00,2013-07-21 12:08:00,
2013-07-21 07:12:00,75.2,73.0,29.88,SSW,192,0.0,3.0,93,0.00,,---,0.00,93.00,VWS V14.00,2013-07-21 12:12:00,
2013-07-21 07:16:00,75.4,72.9,29.89,South,173,2.0,3.0,92,0.00,,---,0.00,95.00,VWS V14.00,2013-07-21 12:16:00,
2013-07-21 07:21:00,75.6,73.1,29.89,South,170,2.0,3.0,92,0.00,,---,0.00,102.00,VWS V14.00,2013-07-21 12:21:00,
2013-07-21 07:25:00,75.7,73.2,29.89,South,189,1.0,4.0,92,0.00,,---,0.00,77.00,VWS V14.00,2013-07-21 12:25:00,
2013-07-21 07:29:00,75.9,73.4,29.89,South,170,3.0,4.0,92,0.00,,---,0.00,179.00,VWS V14.00,2013-07-21 12:29:00,
2013-07-21 07:30:00,76.0,73.5,29.89,South,183,2.0,4.0,92,0.00,,---,0.00,183.00,VWS V14.00,2013-07-21 12:30:00,
2013-07-21 07:33:00,76.1,73.3,29.89,South,190,1.0,3.0,91,0.00,,---,0.00,116.00,VWS V14.00,2013-07-21 12:33:00,
2013-07-21 07:37:00,76.4,73.6,29.89,SSE,161,3.0,3.0,91,0.00,,---,0.00,171.00,VWS V14.00,2013-07-21 12:37:00,
2013-07-21 07:41:00,76.6,73.8,29.89,South,184,1.0,5.0,91,0.00,,---,0.00,125.00,VWS V14.00,2013-07-21 12:41:00,
2013-07-21 07:45:00,76.8,73.7,29.89,SSE,167,0.0,5.0,90,0.00,,---,0.00,227.00,VWS V14.00,2013-07-21 12:45:00,
2013-07-21 07:49:00,77.0,73.8,29.89,SE,144,0.0,5.0,90,0.00,,---,0.00,250.00,VWS V14.00,2013-07-21 12:49:00,
2013-07-21 07:53:00,77.2,74.0,29.89,South,171,1.0,5.0,90,0.00,,---,0.00,260.00,VWS V14.00,2013-07-21 12:53:00,
2013-07-21 07:57:00,77.5,74.3,29.89,South,191,3.0,6.0,90,0.00,,---,0.00,255.00,VWS V14.00,2013-07-21 12:57:00,
2013-07-21 08:00:00,77.6,74.1,29.90,South,180,2.0,6.0,89,0.00,,---,0.00,274.00,VWS V14.00,2013-07-21 13:00:00,
2013-07-21 08:01:00,77.7,74.2,29.90,South,173,1.0,3.0,89,0.00,,---,0.00,301.00,VWS V14.00,2013-07-21 13:01:00,
2013-07-21 08:05:00,78.0,74.2,29.90,South,190,4.0,4.0,88,0.00,,---,0.00,236.00,VWS V14.00,2013-07-21 13:05:00,
2013-07-21 08:09:00,78.2,74.4,29.90,South,182,4.0,5.0,88,0.00,,---,0.00,359.00,VWS V14.00,2013-07-21 13:09:00,
2013-07-21 08:13:00,78.5,74.7,29.90,South,190,3.0,5.0,88,0.00,,---,0.00,385.00,VWS V14.00,2013-07-21 13:13:00,
2013-07-21 08:17:00,78.8,74.6,29.90,South,169,3.0,5.0,87,0.00,,---,0.00,446.00,VWS V14.00,2013-07-21 13:17:00,
2013-07-21 08:21:00,79.1,74.9,29.90,South,187,2.0,5.0,87,0.00,,---,0.00,308.00,VWS V14.00,2013-07-21 13:21:00,
2013-07-21 08:26:00,79.4,74.8,29.90,South,188,5.0,5.0,86,0.00,,---,0.00,438.00,VWS V14.00,2013-07-21 13:26:00,
2013-07-21 08:30:00,79.7,74.8,29.90,South,172,0.0,5.0,85,0.00,,---,0.00,466.00,VWS V14.00,2013-07-21 13:30:00,
2013-07-21 08:34:00,80.0,75.4,29.90,South,169,4.0,4.0,86,0.00,,---,0.00,185.00,VWS V14.00,2013-07-21 13:34:00,
2013-07-21 08:38:00,80.4,75.5,29.90,South,178,1.0,4.0,85,0.00,,---,0.00,452.00,VWS V14.00,2013-07-21 13:38:00,
2013-07-21 08:42:00,80.8,75.5,29.90,South,173,3.0,7.0,84,0.00,,---,0.00,436.00,VWS V14.00,2013-07-21 13:42:00,
2013-07-21 08:46:00,81.1,75.4,29.90,South,182,2.0,7.0,83,0.00,,---,0.00,450.00,VWS V14.00,2013-07-21 13:46:00,
2013-07-21 08:50:00,81.6,75.9,29.90,SSE,156,3.0,7.0,83,0.00,,---,0.00,171.00,VWS V14.00,2013-07-21 13:50:00,
2013-07-21 08:54:00,81.9,75.9,29.90,SW,221,2.0,7.0,82,0.00,,---,0.00,475.00,VWS V14.00,2013-07-21 13:54:00,
2013-07-21 08:58:00,82.2,75.8,29.90,SSW,207,4.0,7.0,81,0.00,,---,0.00,489.00,VWS V14.00,2013-07-21 13:58:00,
2013-07-21 09:00:00,82.3,75.5,29.89,SSW,194,4.0,7.0,80,0.00,,---,0.00,489.00,VWS V14.00,2013-07-21 14:00:00,
2013-07-21 09:02:00,82.4,75.6,29.89,SSW,197,1.0,3.0,80,0.00,,---,0.00,503.00,VWS V14.00,2013-07-21 14:02:00,
2013-07-21 09:06:00,82.7,75.9,29.89,South,173,2.0,4.0,80,0.00,,---,0.00,469.00,VWS V14.00,2013-07-21 14:06:00,
2013-07-21 09:10:00,83.1,75.9,29.89,South,189,3.0,5.0,79,0.00,,---,0.00,519.00,VWS V14.00,2013-07-21 14:10:00,
2013-07-21 09:14:00,83.4,75.8,29.90,SSW,209,4.0,5.0,78,0.00,,---,0.00,531.00,VWS V14.00,2013-07-21 14:14:00,
2013-07-21 09:18:00,83.6,75.6,29.90,South,181,4.0,6.0,77,0.00,,---,0.00,550.00,VWS V14.00,2013-07-21 14:18:00,
2013-07-21 09:22:00,83.6,76.0,29.90,South,177,2.0,6.0,78,0.00,,---,0.00,550.00,VWS V14.00,2013-07-21 14:22:00,
2013-07-21 09:26:00,83.8,75.8,29.90,SE,145,2.0,6.0,77,0.00,,---,0.00,563.00,VWS V14.00,2013-07-21 14:26:00,
2013-07-21 09:30:00,84.0,76.0,29.90,South,183,0.0,6.0,77,0.00,,---,0.00,587.00,VWS V14.00,2013-07-21 14:30:00,
2013-07-21 09:31:00,84.1,75.7,29.90,South,186,1.0,1.0,76,0.00,,---,0.00,587.00,VWS V14.00,2013-07-21 14:31:00,
2013-07-21 09:35:00,84.4,76.0,29.90,South,180,0.0,6.0,76,0.00,,---,0.00,592.00,VWS V14.00,2013-07-21 14:35:00,
2013-07-21 09:39:00,84.7,76.3,29.90,SSW,200,2.0,6.0,76,0.00,,---,0.00,594.00,VWS V14.00,2013-07-21 14:39:00,
2013-07-21 09:43:00,85.1,76.3,29.90,South,185,6.0,6.0,75,0.00,,---,0.00,608.00,VWS V14.00,2013-07-21 14:43:00,
2013-07-21 09:47:00,85.4,76.2,29.90,South,175,2.0,6.0,74,0.00,,---,0.00,622.00,VWS V14.00,2013-07-21 14:47:00,
2013-07-21 09:51:00,85.7,76.5,29.90,South,185,0.0,6.0,74,0.00,,---,0.00,631.00,VWS V14.00,2013-07-21 14:51:00,
2013-07-21 09:55:00,86.0,76.3,29.90,South,187,3.0,6.0,73,0.00,,---,0.00,640.00,VWS V14.00,2013-07-21 14:55:00,
2013-07-21 09:59:00,86.2,76.5,29.90,SSE,149,0.0,6.0,73,0.00,,---,0.00,657.00,VWS V14.00,2013-07-21 14:59:00,
2013-07-21 10:00:00,86.3,76.6,29.90,SW,219,3.0,6.0,73,0.00,,---,0.00,657.00,VWS V14.00,2013-07-21 15:00:00,
2013-07-21 10:03:00,86.5,76.0,29.90,SSW,192,1.0,3.0,71,0.00,,---,0.00,661.00,VWS V14.00,2013-07-21 15:03:00,
2013-07-21 10:07:00,86.8,76.3,29.90,SSE,148,3.0,4.0,71,0.00,,---,0.00,675.00,VWS V14.00,2013-07-21 15:07:00,
2013-07-21 10:11:00,87.0,76.0,29.90,SSW,205,1.0,4.0,70,0.00,,---,0.00,680.00,VWS V14.00,2013-07-21 15:11:00,
2013-07-21 10:15:00,87.1,76.6,29.90,South,181,3.0,6.0,71,0.00,,---,0.00,693.00,VWS V14.00,2013-07-21 15:15:00,
2013-07-21 10:19:00,87.2,76.2,29.90,South,181,4.0,6.0,70,0.00,,---,0.00,703.00,VWS V14.00,2013-07-21 15:19:00,
2013-07-21 10:23:00,87.4,76.0,29.90,South,175,7.0,7.0,69,0.00,,---,0.00,700.00,VWS V14.00,2013-07-21 15:23:00,
2013-07-21 10:27:00,87.3,75.9,29.90,SSE,168,4.0,7.0,69,0.00,,---,0.00,722.00,VWS V14.00,2013-07-21 15:27:00,
2013-07-21 10:30:00,87.4,76.8,29.90,South,173,2.0,7.0,71,0.00,,---,0.00,729.00,VWS V14.00,2013-07-21 15:30:00,
2013-07-21 10:31:00,87.5,76.1,29.90,SSE,167,2.0,3.0,69,0.00,,---,0.00,735.00,VWS V14.00,2013-07-21 15:31:00,
2013-07-21 10:35:00,87.8,76.8,29.90,South,186,0.0,3.0,70,0.00,,---,0.00,761.00,VWS V14.00,2013-07-21 15:35:00,
2013-07-21 10:39:00,88.0,76.6,29.90,SSE,165,4.0,5.0,69,0.00,,---,0.00,775.00,VWS V14.00,2013-07-21 15:39:00,
2013-07-21 10:43:00,88.2,76.8,29.90,SSE,156,2.0,5.0,69,0.00,,---,0.00,763.00,VWS V14.00,2013-07-21 15:43:00,
2013-07-21 10:48:00,88.4,76.9,29.90,South,184,0.0,5.0,69,0.00,,---,0.00,779.00,VWS V14.00,2013-07-21 15:48:00,
2013-07-21 10:52:00,88.7,76.3,29.90,SSW,198,2.0,7.0,67,0.00,,---,0.00,810.00,VWS V14.00,2013-07-21 15:52:00,
2013-07-21 10:56:00,88.9,77.4,29.90,South,188,1.0,7.0,69,0.00,,---,0.00,793.00,VWS V14.00,2013-07-21 15:56:00,
2013-07-21 11:00:00,89.0,76.6,29.89,SSE,160,2.0,7.0,67,0.00,,---,0.00,773.00,VWS V14.00,2013-07-21 16:00:00,
2013-07-21 11:04:00,89.1,77.2,29.89,South,189,2.0,4.0,68,0.00,,---,0.00,817.00,VWS V14.00,2013-07-21 16:04:00,
2013-07-21 11:08:00,89.1,76.3,29.89,South,169,2.0,4.0,66,0.00,,---,0.00,819.00,VWS V14.00,2013-07-21 16:08:00,
2013-07-21 11:12:00,89.1,77.2,29.89,SSE,167,5.0,5.0,68,0.00,,---,0.00,849.00,VWS V14.00,2013-07-21 16:12:00,
2013-07-21 11:16:00,89.1,76.3,29.89,South,191,2.0,5.0,66,0.00,,---,0.00,875.00,VWS V14.00,2013-07-21 16:16:00,
2013-07-21 11:20:00,89.3,76.9,29.89,South,169,3.0,5.0,67,0.00,,---,0.00,923.00,VWS V14.00,2013-07-21 16:20:00,
2013-07-21 11:24:00,89.5,78.0,29.89,SSE,167,3.0,5.0,69,0.00,,---,0.00,884.00,VWS V14.00,2013-07-21 16:24:00,
2013-07-21 11:28:00,89.7,77.3,29.89,South,183,4.0,6.0,67,0.00,,---,0.00,925.00,VWS V14.00,2013-07-21 16:28:00,
2013-07-21 11:30:00,89.8,76.5,29.89,South,169,1.0,6.0,65,0.00,,---,0.00,932.00,VWS V14.00,2013-07-21 16:30:00,
2013-07-21 11:32:00,89.8,75.5,29.89,East,84,0.0,1.0,63,0.00,,---,0.00,932.00,VWS V14.00,2013-07-21 16:32:00,
2013-07-21 11:36:00,90.0,77.6,29.89,SSE,159,3.0,3.0,67,0.00,,---,0.00,1009.00,VWS V14.00,2013-07-21 16:36:00,
2013-07-21 11:40:00,90.3,76.5,29.89,SSW,207,1.0,3.0,64,0.00,,---,0.00,884.00,VWS V14.00,2013-07-21 16:40:00,
2013-07-21 11:44:00,90.4,76.6,29.89,SSE,157,2.0,3.0,64,0.00,,---,0.00,833.00,VWS V14.00,2013-07-21 16:44:00,
2013-07-21 11:48:00,90.5,77.1,29.89,South,183,0.0,4.0,65,0.00,,---,0.00,983.00,VWS V14.00,2013-07-21 16:48:00,
2013-07-21 11:52:00,90.8,76.9,29.89,South,184,4.0,6.0,64,0.00,,---,0.00,958.00,VWS V14.00,2013-07-21 16:52:00,
2013-07-21 11:56:00,90.9,77.0,29.89,SSE,149,1.0,6.0,64,0.00,,---,0.00,946.00,VWS V14.00,2013-07-21 16:56:00,
2013-07-21 12:00:00,91.2,76.8,29.89,SSE,166,2.0,6.0,63,0.00,,---,0.00,995.00,VWS V14.00,2013-07-21 17:00:00,
2013-07-21 12:01:00,91.2,76.8,29.89,SSW,199,1.0,2.0,63,0.00,,---,0.00,995.00,VWS V14.00,2013-07-21 17:01:00,
2013-07-21 12:05:00,91.3,76.5,29.89,South,187,3.0,3.0,62,0.00,,---,0.00,564.00,VWS V14.00,2013-07-21 17:05:00,
2013-07-21 12:09:00,91.3,76.9,29.89,SSE,161,2.0,5.0,63,0.00,,---,0.00,953.00,VWS V14.00,2013-07-21 17:09:00,
2013-07-21 12:13:00,91.1,75.8,29.89,West,264,0.0,5.0,61,0.00,,---,0.00,976.00,VWS V14.00,2013-07-21 17:13:00,
2013-07-21 12:17:00,91.0,76.2,29.89,SSE,165,1.0,5.0,62,0.00,,---,0.00,928.00,VWS V14.00,2013-07-21 17:17:00,
2013-07-21 12:21:00,91.2,77.3,29.89,WNW,286,1.0,5.0,64,0.00,,---,0.00,947.00,VWS V14.00,2013-07-21 17:21:00,
2013-07-21 12:25:00,91.5,77.6,29.89,South,171,2.0,5.0,64,0.00,,---,0.00,998.00,VWS V14.00,2013-07-21 17:25:00,
2013-07-21 12:29:00,91.7,77.3,29.88,SSW,205,0.0,5.0,63,0.00,,---,0.00,258.00,VWS V14.00,2013-07-21 17:29:00,
2013-07-21 12:30:00,91.8,75.4,29.88,SW,227,0.0,5.0,59,0.00,,---,0.00,970.00,VWS V14.00,2013-07-21 17:30:00,
2013-07-21 12:33:00,91.9,76.0,29.88,SSW,192,1.0,1.0,60,0.00,,---,0.00,1027.00,VWS V14.00,2013-07-21 17:33:00,
2013-07-21 12:37:00,92.3,76.4,29.88,SSW,192,2.0,4.0,60,0.00,,---,0.00,1020.00,VWS V14.00,2013-07-21 17:37:00,
2013-07-21 12:41:00,92.4,76.5,29.88,SSE,155,2.0,4.0,60,0.00,,---,0.00,944.00,VWS V14.00,2013-07-21 17:41:00,
2013-07-21 12:45:00,92.2,76.8,29.88,SE,142,3.0,5.0,61,0.00,,---,0.00,951.00,VWS V14.00,2013-07-21 17:45:00,
2013-07-21 12:49:00,92.3,76.9,29.88,SSW,196,1.0,5.0,61,0.00,,---,0.00,953.00,VWS V14.00,2013-07-21 17:49:00,
2013-07-21 12:53:00,92.2,76.3,29.88,SSE,152,1.0,5.0,60,0.00,,---,0.00,967.00,VWS V14.00,2013-07-21 17:53:00,
2013-07-21 12:57:00,92.0,75.1,29.88,SE,142,2.0,5.0,58,0.00,,---,0.00,1002.00,VWS V14.00,2013-07-21 17:57:00,
2013-07-21 13:00:00,91.9,76.0,29.87,SSE,151,2.0,5.0,60,0.00,,---,0.00,1014.00,VWS V14.00,2013-07-21 18:00:00,
2013-07-21 13:01:00,91.9,76.0,29.87,South,172,3.0,3.0,60,0.00,,---,0.00,1014.00,VWS V14.00,2013-07-21 18:01:00,
2013-07-21 13:06:00,92.1,77.2,29.87,SSE,167,3.0,3.0,62,0.00,,---,0.00,1014.00,VWS V14.00,2013-07-21 18:06:00,
2013-07-21 13:10:00,92.3,77.4,29.87,SSE,167,2.0,5.0,62,0.00,,---,0.00,944.00,VWS V14.00,2013-07-21 18:10:00,
2013-07-21 13:14:00,92.7,76.8,29.87,South,180,0.0,5.0,60,0.00,,---,0.00,969.00,VWS V14.00,2013-07-21 18:14:00,
2013-07-21 13:18:00,93.1,76.7,29.86,South,182,1.0,5.0,59,0.00,,---,0.00,954.00,VWS V14.00,2013-07-21 18:18:00,
2013-07-21 13:22:00,93.4,76.9,29.86,SSW,207,0.0,5.0,59,0.00,,---,0.00,947.00,VWS V14.00,2013-07-21 18:22:00,
2013-07-21 13:26:00,93.4,75.4,29.86,SSE,159,2.0,6.0,56,0.00,,---,0.00,954.00,VWS V14.00,2013-07-21 18:26:00,
2013-07-21 13:30:00,93.2,75.7,29.86,South,186,2.0,6.0,57,0.00,,---,0.00,942.00,VWS V14.00,2013-07-21 18:30:00,
2013-07-21 13:34:00,93.1,74.6,29.86,South,180,5.0,6.0,55,0.00,,---,0.00,976.00,VWS V14.00,2013-07-21 18:34:00,
2013-07-21 13:38:00,93.1,76.7,29.86,SSW,193,1.0,6.0,59,0.00,,---,0.00,967.00,VWS V14.00,2013-07-21 18:38:00,
2013-07-21 13:42:00,93.2,75.7,29.86,SSW,200,5.0,6.0,57,0.00,,---,0.00,926.00,VWS V14.00,2013-07-21 18:42:00,
2013-07-21 13:46:00,93.1,74.6,29.86,South,185,1.0,6.0,55,0.00,,---,0.00,928.00,VWS V14.00,2013-07-21 18:46:00,
2013-07-21 13:50:00,93.4,74.8,29.86,SSE,164,2.0,6.0,55,0.00,,---,0.00,911.00,VWS V14.00,2013-07-21 18:50:00,
2013-07-21 13:54:00,93.3,75.3,29.86,SSE,167,3.0,6.0,56,0.00,,---,0.00,932.00,VWS V14.00,2013-07-21 18:54:00,
2013-07-21 13:58:00,92.7,73.6,29.86,South,182,2.0,6.0,54,0.00,,---,0.00,615.00,VWS V14.00,2013-07-21 18:58:00,
2013-07-21 14:00:00,92.5,74.5,29.85,SSW,199,4.0,6.0,56,0.00,,---,0.00,909.00,VWS V14.00,2013-07-21 19:00:00,
2013-07-21 14:02:00,92.5,75.6,29.85,South,191,6.0,6.0,58,0.00,,---,0.00,904.00,VWS V14.00,2013-07-21 19:02:00,
2013-07-21 14:06:00,92.8,74.8,29.85,SSE,161,3.0,6.0,56,0.00,,---,0.00,905.00,VWS V14.00,2013-07-21 19:06:00,
2013-07-21 14:10:00,93.0,75.0,29.85,South,172,2.0,6.0,56,0.00,,---,0.00,895.00,VWS V14.00,2013-07-21 19:10:00,
2013-07-21 14:15:00,93.1,74.0,29.85,South,175,2.0,6.0,54,0.00,,---,0.00,882.00,VWS V14.00,2013-07-21 19:15:00,
2013-07-21 14:19:00,93.2,74.6,29.85,SSE,152,4.0,6.0,55,0.00,,---,0.00,881.00,VWS V14.00,2013-07-21 19:19:00,
2013-07-21 14:23:00,93.0,73.9,29.85,SE,141,2.0,6.0,54,0.00,,---,0.00,907.00,VWS V14.00,2013-07-21 19:23:00,
2013-07-21 14:27:00,92.6,74.6,29.85,SW,217,2.0,6.0,56,0.00,,---,0.00,940.00,VWS V14.00,2013-07-21 19:27:00,
2013-07-21 14:30:00,92.6,73.5,29.85,SSW,192,3.0,8.0,54,0.00,,---,0.00,874.00,VWS V14.00,2013-07-21 19:30:00,
2013-07-21 14:31:00,92.7,75.2,29.85,South,172,1.0,3.0,57,0.00,,---,0.00,870.00,VWS V14.00,2013-07-21 19:31:00,
2013-07-21 14:35:00,93.0,75.5,29.85,SSE,154,1.0,3.0,57,0.00,,---,0.00,877.00,VWS V14.00,2013-07-21 19:35:00,
2013-07-21 14:39:00,93.3,75.8,29.85,SSW,206,4.0,7.0,57,0.00,,---,0.00,886.00,VWS V14.00,2013-07-21 19:39:00,
2013-07-21 14:43:00,93.5,73.8,29.85,SE,143,1.0,7.0,53,0.00,,---,0.00,854.00,VWS V14.00,2013-07-21 19:43:00,
2013-07-21 14:47:00,93.5,73.8,29.84,South,171,2.0,9.0,53,0.00,,---,0.00,846.00,VWS V14.00,2013-07-21 19:47:00,
2013-07-21 14:51:00,93.7,75.1,29.84,South,190,2.0,9.0,55,0.00,,---,0.00,844.00,VWS V14.00,2013-07-21 19:51:00,
2013-07-21 14:55:00,93.8,74.1,29.84,SSE,163,4.0,9.0,53,0.00,,---,0.00,803.00,VWS V14.00,2013-07-21 19:55:00,
2013-07-21 14:59:00,93.5,74.9,29.84,West,263,4.0,9.0,55,0.00,,---,0.00,809.00,VWS V14.00,2013-07-21 19:59:00,
2013-07-21 15:00:00,93.5,73.8,29.84,WSW,246,0.0,9.0,53,0.00,,---,0.00,809.00,VWS V14.00,2013-07-21 20:00:00,
2013-07-21 15:03:00,93.4,74.8,29.84,South,171,0.0,4.0,55,0.00,,---,0.00,816.00,VWS V14.00,2013-07-21 20:03:00,
2013-07-21 15:07:00,93.4,74.8,29.84,SE,145,5.0,6.0,55,0.00,,---,0.00,802.00,VWS V14.00,2013-07-21 20:07:00,
2013-07-21 15:11:00,93.4,74.3,29.84,South,179,3.0,6.0,54,0.00,,---,0.00,798.00,VWS V14.00,2013-07-21 20:11:00,
2013-07-21 15:15:00,93.5,73.8,29.84,WSW,238,0.0,6.0,53,0.00,,---,0.00,795.00,VWS V14.00,2013-07-21 20:15:00,
2013-07-21 15:20:00,93.7,75.1,29.84,South,170,1.0,6.0,55,0.00,,---,0.00,775.00,VWS V14.00,2013-07-21 20:20:00,
2013-07-21 15:24:00,93.8,76.3,29.84,SW,219,3.0,6.0,57,0.00,,---,0.00,782.00,VWS V14.00,2013-07-21 20:24:00,
2013-07-21 15:28:00,93.8,74.1,29.84,South,182,4.0,6.0,53,0.00,,---,0.00,770.00,VWS V14.00,2013-07-21 20:28:00,
2013-07-21 15:30:00,93.7,73.4,29.83,South,187,2.0,6.0,52,0.00,,---,0.00,763.00,VWS V14.00,2013-07-21 20:30:00,
2013-07-21 15:32:00,93.7,74.6,29.83,SE,142,5.0,5.0,54,0.00,,---,0.00,752.00,VWS V14.00,2013-07-21 20:32:00,
2013-07-21 15:36:00,93.5,76.0,29.83,South,176,2.0,11.0,57,0.00,,---,0.00,731.00,VWS V14.00,2013-07-21 20:36:00,
2013-07-21 15:40:00,93.6,74.5,29.83,SSE,161,4.0,11.0,54,0.00,,---,0.00,717.00,VWS V14.00,2013-07-21 20:40:00,
2013-07-21 15:44:00,93.6,76.1,29.82,South,173,3.0,11.0,57,0.00,,---,0.00,701.00,VWS V14.00,2013-07-21 20:44:00,
2013-07-21 15:48:00,93.7,74.6,29.82,South,188,4.0,11.0,54,0.00,,---,0.00,698.00,VWS V14.00,2013-07-21 20:48:00,
2013-07-21 15:52:00,93.8,74.1,29.82,SE,141,1.0,11.0,53,0.00,,---,0.00,696.00,VWS V14.00,2013-07-21 20:52:00,
2013-07-21 15:56:00,93.9,74.2,29.82,South,188,1.0,11.0,53,0.00,,---,0.00,686.00,VWS V14.00,2013-07-21 20:56:00,
2013-07-21 16:00:00,93.8,75.2,29.82,SSE,167,3.0,11.0,55,0.00,,---,0.00,664.00,VWS V14.00,2013-07-21 21:00:00,
2013-07-21 16:04:00,93.5,74.4,29.82,SSE,161,1.0,4.0,54,0.00,,---,0.00,642.00,VWS V14.00,2013-07-21 21:04:00,
2013-07-21 16:08:00,93.2,75.7,29.82,South,182,3.0,6.0,57,0.00,,---,0.00,635.00,VWS V14.00,2013-07-21 21:08:00,
2013-07-21 16:12:00,93.1,75.1,29.82,South,169,5.0,6.0,56,0.00,,---,0.00,631.00,VWS V14.00,2013-07-21 21:12:00,
2013-07-21 16:16:00,93.1,74.6,29.81,South,177,3.0,6.0,55,0.00,,---,0.00,596.00,VWS V14.00,2013-07-21 21:16:00,
2013-07-21 16:20:00,93.1,75.1,29.81,SSE,164,5.0,6.0,56,0.00,,---,0.00,587.00,VWS V14.00,2013-07-21 21:20:00,
2013-07-21 16:24:00,93.3,75.3,29.81,South,181,4.0,6.0,56,0.00,,---,0.00,596.00,VWS V14.00,2013-07-21 21:24:00,
2013-07-21 16:29:00,93.4,74.8,29.81,South,169,4.0,6.0,55,0.00,,---,0.00,594.00,VWS V14.00,2013-07-21 21:29:00,
2013-07-21 16:30:00,93.3,74.7,29.81,SSE,167,4.0,8.0,55,0.00,,---,0.00,594.00,VWS V14.00,2013-07-21 21:30:00,
2013-07-21 16:33:00,93.2,75.2,29.81,SSE,148,4.0,6.0,56,0.00,,---,0.00,578.00,VWS V14.00,2013-07-21 21:33:00,
2013-07-21 16:37:00,93.0,73.9,29.81,SSE,167,3.0,6.0,54,0.00,,---,0.00,559.00,VWS V14.00,2013-07-21 21:37:00,
2013-07-21 16:41:00,92.9,74.4,29.81,South,185,3.0,10.0,55,0.00,,---,0.00,547.00,VWS V14.00,2013-07-21 21:41:00,
2013-07-21 16:45:00,93.0,75.0,29.82,SSE,154,5.0,10.0,56,0.00,,---,0.00,533.00,VWS V14.00,2013-07-21 21:45:00,
2013-07-21 16:49:00,92.8,74.3,29.82,South,169,4.0,10.0,55,0.00,,---,0.00,520.00,VWS V14.00,2013-07-21 21:49:00,
2013-07-21 16:53:00,92.8,74.8,29.82,SSE,162,2.0,10.0,56,0.00,,---,0.00,513.00,VWS V14.00,2013-07-21 21:53:00,
2013-07-21 16:57:00,92.9,74.4,29.82,SSE,154,4.0,10.0,55,0.00,,---,0.00,504.00,VWS V14.00,2013-07-21 21:57:00,
2013-07-21 17:00:00,92.9,74.4,29.82,SSW,200,0.0,10.0,55,0.00,,---,0.00,496.00,VWS V14.00,2013-07-21 22:00:00,
2013-07-21 17:01:00,92.9,74.9,29.82,South,178,1.0,2.0,56,0.00,,---,0.00,490.00,VWS V14.00,2013-07-21 22:01:00,
2013-07-21 17:05:00,93.1,74.6,29.82,SSE,164,4.0,6.0,55,0.00,,---,0.00,476.00,VWS V14.00,2013-07-21 22:05:00,
2013-07-21 17:09:00,93.1,73.4,29.82,SSW,199,4.0,6.0,53,0.00,,---,0.00,466.00,VWS V14.00,2013-07-21 22:09:00,
2013-07-21 17:13:00,93.3,75.3,29.82,SSE,166,2.0,6.0,56,0.00,,---,0.00,457.00,VWS V14.00,2013-07-21 22:13:00,
2013-07-21 17:17:00,93.3,74.2,29.82,South,173,3.0,11.0,54,0.00,,---,0.00,439.00,VWS V14.00,2013-07-21 22:17:00,
2013-07-21 17:21:00,93.4,74.3,29.82,South,175,3.0,11.0,54,0.00,,---,0.00,429.00,VWS V14.00,2013-07-21 22:21:00,
2013-07-21 17:26:00,93.3,73.6,29.82,South,174,4.0,11.0,53,0.00,,---,0.00,429.00,VWS V14.00,2013-07-21 22:26:00,
2013-07-21 17:30:00,93.3,74.2,29.82,South,182,3.0,11.0,54,0.00,,---,0.00,417.00,VWS V14.00,2013-07-21 22:30:00,
2013-07-21 17:34:00,93.1,73.4,29.82,South,174,2.0,7.0,53,0.00,,---,0.00,387.00,VWS V14.00,2013-07-21 22:34:00,
2013-07-21 17:38:00,92.9,74.4,29.82,South,179,0.0,7.0,55,0.00,,---,0.00,381.00,VWS V14.00,2013-07-21 22:38:00,
2013-07-21 17:42:00,92.8,74.8,29.82,SSE,161,5.0,7.0,56,0.00,,---,0.00,339.00,VWS V14.00,2013-07-21 22:42:00,
2013-07-21 17:46:00,92.6,73.5,29.82,South,171,6.0,7.0,54,0.00,,---,0.00,313.00,VWS V14.00,2013-07-21 22:46:00,
2013-07-21 17:50:00,92.4,73.9,29.82,SSE,165,3.0,7.0,55,0.00,,---,0.00,287.00,VWS V14.00,2013-07-21 22:50:00,
2013-07-21 17:54:00,92.0,74.1,29.82,SSE,163,2.0,7.0,56,0.00,,---,0.00,253.00,VWS V14.00,2013-07-21 22:54:00,
2013-07-21 17:58:00,91.4,73.5,29.82,SSE,159,3.0,7.0,56,0.00,,---,0.00,109.00,VWS V14.00,2013-07-21 22:58:00,
2013-07-21 18:00:00,91.1,73.8,29.82,South,171,2.0,7.0,57,0.00,,---,0.00,109.00,VWS V14.00,2013-07-21 23:00:00,
2013-07-21 18:02:00,90.9,73.6,29.82,South,175,3.0,4.0,57,0.00,,---,0.00,98.00,VWS V14.00,2013-07-21 23:02:00,
2013-07-21 18:06:00,90.5,73.7,29.82,SSE,167,0.0,4.0,58,0.00,,---,0.00,90.00,VWS V14.00,2013-07-21 23:06:00,
2013-07-21 18:10:00,90.4,74.1,29.82,SSE,159,2.0,4.0,59,0.00,,---,0.00,121.00,VWS V14.00,2013-07-21 23:10:00,
2013-07-21 18:14:00,90.2,74.9,29.82,SSE,167,1.0,4.0,61,0.00,,---,0.00,139.00,VWS V14.00,2013-07-21 23:14:00,
2013-07-21 18:18:00,90.2,74.4,29.82,SSE,166,0.0,4.0,60,0.00,,---,0.00,135.00,VWS V14.00,2013-07-21 23:18:00,
2013-07-21 18:23:00,90.1,75.3,29.82,South,180,2.0,4.0,62,0.00,,---,0.00,134.00,VWS V14.00,2013-07-21 23:23:00,
2013-07-21 18:27:00,90.0,74.3,29.82,SSE,161,2.0,4.0,60,0.00,,---,0.00,109.00,VWS V14.00,2013-07-21 23:27:00,
2013-07-21 18:30:00,89.8,74.6,29.81,South,170,0.0,4.0,61,0.00,,---,0.00,91.00,VWS V14.00,2013-07-21 23:30:00,
2013-07-21 18:31:00,89.8,74.1,29.81,South,171,3.0,3.0,60,0.00,,---,0.00,90.00,VWS V14.00,2013-07-21 23:31:00,
2013-07-21 18:35:00,89.6,74.4,29.81,South,171,0.0,3.0,61,0.00,,---,0.00,84.00,VWS V14.00,2013-07-21 23:35:00,
2013-07-21 18:39:00,89.5,74.3,29.81,South,171,2.0,3.0,61,0.00,,---,0.00,81.00,VWS V14.00,2013-07-21 23:39:00,
2013-07-21 18:43:00,89.3,75.1,29.81,South,171,0.0,3.0,63,0.00,,---,0.00,81.00,VWS V14.00,2013-07-21 23:43:00,
2013-07-21 18:47:00,89.2,75.0,29.82,South,171,0.0,3.0,63,0.00,,---,0.00,81.00,VWS V14.00,2013-07-21 23:47:00,
2013-07-21 18:51:00,89.1,74.9,29.82,South,171,0.0,3.0,63,0.00,,---,0.00,72.00,VWS V14.00,2013-07-21 23:51:00,
2013-07-21 18:55:00,89.0,75.2,29.82,South,171,0.0,3.0,64,0.00,,---,0.00,70.00,VWS V14.00,2013-07-21 23:55:00,
2013-07-21 18:59:00,88.8,75.5,29.81,South,171,0.0,3.0,65,0.00,,---,0.00,72.00,VWS V14.00,2013-07-21 23:59:00,
2013-07-21 19:00:00,88.8,76.0,29.81,South,171,0.0,3.0,66,0.00,,---,0.00,76.00,VWS V14.00,2013-07-22 00:00:00,
2013-07-21 19:03:00,88.6,75.3,29.81,South,171,0.0,0.0,65,0.00,,---,0.00,70.00,VWS V14.00,2013-07-22 00:03:00,
2013-07-21 19:07:00,88.4,75.1,29.81,South,171,0.0,0.0,65,0.00,,---,0.00,53.00,VWS V14.00,2013-07-22 00:07:00,
2013-07-21 19:11:00,88.3,75.5,29.81,South,171,0.0,0.0,66,0.00,,---,0.00,46.00,VWS V14.00,2013-07-22 00:11:00,
2013-07-21 19:15:00,88.2,75.4,29.81,South,171,0.0,0.0,66,0.00,,---,0.00,44.00,VWS V14.00,2013-07-22 00:15:00,
2013-07-21 19:19:00,88.0,75.7,29.81,South,171,0.0,0.0,67,0.00,,---,0.00,42.00,VWS V14.00,2013-07-22 00:19:00,
2013-07-21 19:23:00,87.9,76.0,29.81,South,171,0.0,0.0,68,0.00,,---,0.00,40.00,VWS V14.00,2013-07-22 00:23:00,
2013-07-21 19:27:00,87.7,75.8,29.81,South,171,0.0,0.0,68,0.00,,---,0.00,39.00,VWS V14.00,2013-07-22 00:27:00,
2013-07-21 19:30:00,87.6,76.2,29.82,South,171,0.0,0.0,69,0.00,,---,0.00,33.00,VWS V14.00,2013-07-22 00:30:00,
2013-07-21 19:31:00,87.6,76.2,29.82,South,171,0.0,0.0,69,0.00,,---,0.00,33.00,VWS V14.00,2013-07-22 00:31:00,
2013-07-21 19:36:00,87.4,76.4,29.82,South,171,0.0,0.0,70,0.00,,---,0.00,25.00,VWS V14.00,2013-07-22 00:36:00,
2013-07-21 19:40:00,87.3,76.3,29.82,South,171,0.0,0.0,70,0.00,,---,0.00,23.00,VWS V14.00,2013-07-22 00:40:00,
2013-07-21 19:44:00,86.9,75.9,29.82,South,171,0.0,0.0,70,0.00,,---,0.00,14.00,VWS V14.00,2013-07-22 00:44:00,
2013-07-21 19:48:00,86.8,76.3,29.82,South,171,0.0,0.0,71,0.00,,---,0.00,12.00,VWS V14.00,2013-07-22 00:48:00,
2013-07-21 19:52:00,86.7,76.2,29.82,South,171,0.0,0.0,71,0.00,,---,0.00,7.00,VWS V14.00,2013-07-22 00:52:00,
2013-07-21 19:56:00,86.6,76.1,29.82,South,171,1.0,3.0,71,0.00,,---,0.00,5.00,VWS V14.00,2013-07-22 00:56:00,
2013-07-21 20:00:00,86.2,74.8,29.82,South,169,4.0,7.0,69,0.00,,---,0.00,0.00,VWS V14.00,2013-07-22 01:00:00,
2013-07-21 20:04:00,86.1,74.8,29.82,South,173,3.0,5.0,69,0.00,,---,0.00,5.00,VWS V14.00,2013-07-22 01:04:00,
2013-07-21 20:08:00,86.1,74.8,29.82,SSE,165,2.0,5.0,69,0.00,,---,0.00,0.00,VWS V14.00,2013-07-22 01:08:00,
2013-07-21 20:12:00,85.9,74.6,29.82,South,170,3.0,6.0,69,0.00,,---,0.00,0.00,VWS V14.00,2013-07-22 01:12:00,
2013-07-21 20:16:00,85.7,74.8,29.82,South,188,7.0,7.0,70,0.00,,---,0.00,0.00,VWS V14.00,2013-07-22 01:16:00,
2013-07-21 20:20:00,85.6,74.7,29.82,SSE,167,4.0,7.0,70,0.00,,---,0.00,0.00,VWS V14.00,2013-07-22 01:20:00,
2013-07-21 20:24:00,85.4,74.5,29.82,SSE,159,4.0,7.0,70,0.00,,---,0.00,0.00,VWS V14.00,2013-07-22 01:24:00,
2013-07-21 20:29:00,85.3,74.8,29.82,South,189,2.0,7.0,71,0.00,,---,0.00,0.00,VWS V14.00,2013-07-22 01:29:00,
2013-07-21 20:30:00,85.2,74.7,29.82,SSW,195,5.0,7.0,71,0.00,,---,0.00,0.00,VWS V14.00,2013-07-22 01:30:00,
2013-07-21 20:33:00,85.1,74.6,29.82,South,176,3.0,7.0,71,0.00,,---,0.00,0.00,VWS V14.00,2013-07-22 01:33:00,
2013-07-21 20:37:00,84.9,74.4,29.82,SSE,167,5.0,7.0,71,0.00,,---,0.00,0.00,VWS V14.00,2013-07-22 01:37:00,
2013-07-21 20:41:00,84.8,74.8,29.82,SSE,153,3.0,7.0,72,0.00,,---,0.00,0.00,VWS V14.00,2013-07-22 01:41:00,
2013-07-21 20:45:00,84.6,74.6,29.83,South,182,3.0,7.0,72,0.00,,---,0.00,0.00,VWS V14.00,2013-07-22 01:45:00,
2013-07-21 20:49:00,84.6,74.6,29.83,South,169,2.0,7.0,72,0.00,,---,0.00,0.00,VWS V14.00,2013-07-22 01:49:00,
2013-07-21 20:53:00,84.5,74.9,29.83,South,173,3.0,7.0,73,0.00,,---,0.00,0.00,VWS V14.00,2013-07-22 01:53:00,
2013-07-21 20:57:00,84.4,74.8,29.83,South,189,3.0,7.0,73,0.00,,---,0.00,0.00,VWS V14.00,2013-07-22 01:57:00,
2013-07-21 21:00:00,84.3,74.7,29.83,South,181,1.0,7.0,73,0.00,,---,0.00,0.00,VWS V14.00,2013-07-22 02:00:00,
2013-07-21 21:01:00,84.3,74.7,29.83,South,174,4.0,4.0,73,0.00,,---,0.00,0.00,VWS V14.00,2013-07-22 02:01:00,
2013-07-21 21:05:00,84.2,75.0,29.83,South,184,3.0,4.0,74,0.00,,---,0.00,0.00,VWS V14.00,2013-07-22 02:05:00,
2013-07-21 21:09:00,84.0,74.8,29.83,South,184,1.0,4.0,74,0.00,,---,0.00,0.00,VWS V14.00,2013-07-22 02:09:00,
2013-07-21 21:13:00,83.9,74.7,29.83,South,178,0.0,4.0,74,0.00,,---,0.00,0.00,VWS V14.00,2013-07-22 02:13:00,
2013-07-21 21:17:00,83.8,75.0,29.83,SSW,192,1.0,4.0,75,0.00,,---,0.00,0.00,VWS V14.00,2013-07-22 02:17:00,
2013-07-21 21:21:00,83.7,74.9,29.83,South,171,1.0,4.0,75,0.00,,---,0.00,0.00,VWS V14.00,2013-07-22 02:21:00,
2013-07-21 21:25:00,83.5,74.8,29.83,South,175,1.0,4.0,75,0.00,,---,0.00,0.00,VWS V14.00,2013-07-22 02:25:00,
2013-07-21 21:29:00,83.4,74.7,29.84,South,186,1.0,4.0,75,0.00,,---,0.00,0.00,VWS V14.00,2013-07-22 02:29:00,
2013-07-21 21:30:00,83.4,74.7,29.84,South,186,0.0,4.0,75,0.00,,---,0.00,0.00,VWS V14.00,2013-07-22 02:30:00,
2013-07-21 21:33:00,83.3,74.9,29.84,South,186,0.0,2.0,76,0.00,,---,0.00,0.00,VWS V14.00,2013-07-22 02:33:00,
2013-07-21 21:38:00,83.2,74.8,29.84,South,190,1.0,4.0,76,0.00,,---,0.00,0.00,VWS V14.00,2013-07-22 02:38:00,
2013-07-21 21:42:00,83.0,74.7,29.84,South,180,1.0,4.0,76,0.00,,---,0.00,0.00,VWS V14.00,2013-07-22 02:42:00,
2013-07-21 21:46:00,82.9,74.9,29.84,South,182,3.0,4.0,77,0.00,,---,0.00,0.00,VWS V14.00,2013-07-22 02:46:00,
2013-07-21 21:50:00,82.8,74.9,29.84,South,180,1.0,4.0,77,0.00,,---,0.00,0.00,VWS V14.00,2013-07-22 02:50:00,
2013-07-21 21:54:00,82.7,74.8,29.84,South,183,2.0,4.0,77,0.00,,---,0.00,0.00,VWS V14.00,2013-07-22 02:54:00,
2013-07-21 21:58:00,82.6,75.1,29.84,SSE,166,1.0,4.0,78,0.00,,---,0.00,0.00,VWS V14.00,2013-07-22 02:58:00,
2013-07-21 22:00:00,82.5,74.9,29.85,SSE,163,1.0,4.0,78,0.00,,---,0.00,0.00,VWS V14.00,2013-07-22 03:00:00,
2013-07-21 22:02:00,82.5,74.9,29.85,South,173,1.0,2.0,78,0.00,,---,0.00,0.00,VWS V14.00,2013-07-22 03:02:00,
2013-07-21 22:06:00,82.4,74.5,29.85,SSE,166,2.0,2.0,77,0.00,,---,0.00,0.00,VWS V14.00,2013-07-22 03:06:00,
2013-07-21 22:10:00,82.3,74.4,29.85,South,171,1.0,3.0,77,0.00,,---,0.00,0.00,VWS V14.00,2013-07-22 03:10:00,
2013-07-21 22:14:00,82.3,74.8,29.85,South,184,3.0,3.0,78,0.00,,---,0.00,0.00,VWS V14.00,2013-07-22 03:14:00,
2013-07-21 22:18:00,82.2,74.7,29.85,South,182,1.0,3.0,78,0.00,,---,0.00,0.00,VWS V14.00,2013-07-22 03:18:00,
2013-07-21 22:22:00,82.1,74.6,29.85,SE,139,5.0,5.0,78,0.00,,---,0.00,0.00,VWS V14.00,2013-07-22 03:22:00,
2013-07-21 22:26:00,82.1,74.6,29.85,South,180,3.0,5.0,78,0.00,,---,0.00,0.00,VWS V14.00,2013-07-22 03:26:00,
2013-07-21 22:30:00,82.0,74.5,29.86,SSW,194,4.0,5.0,78,0.00,,---,0.00,0.00,VWS V14.00,2013-07-22 03:30:00,
2013-07-21 22:34:00,81.9,74.4,29.86,SSW,197,1.0,4.0,78,0.00,,---,0.00,0.00,VWS V14.00,2013-07-22 03:34:00,
2013-07-21 22:38:00,81.9,74.4,29.86,South,186,1.0,4.0,78,0.00,,---,0.00,0.00,VWS V14.00,2013-07-22 03:38:00,
2013-07-21 22:42:00,81.8,74.3,29.86,South,179,1.0,4.0,78,0.00,,---,0.00,0.00,VWS V14.00,2013-07-22 03:42:00,
2013-07-21 22:47:00,81.7,74.2,29.86,South,172,0.0,4.0,78,0.00,,---,0.00,0.00,VWS V14.00,2013-07-22 03:47:00,
2013-07-21 22:51:00,81.6,74.1,29.86,South,182,1.0,4.0,78,0.00,,---,0.00,0.00,VWS V14.00,2013-07-22 03:51:00,
2013-07-21 22:55:00,81.4,73.9,29.86,SSW,209,0.0,4.0,78,0.00,,---,0.00,0.00,VWS V14.00,2013-07-22 03:55:00,
2013-07-21 22:59:00,81.4,73.9,29.86,South,173,2.0,4.0,78,0.00,,---,0.00,0.00,VWS V14.00,2013-07-22 03:59:00,
2013-07-21 23:00:00,81.4,73.9,29.86,South,180,1.0,4.0,78,0.00,,---,0.00,0.00,VWS V14.00,2013-07-22 04:00:00,
2013-07-21 23:03:00,81.3,73.8,29.86,South,188,0.0,3.0,78,0.00,,---,0.00,0.00,VWS V14.00,2013-07-22 04:03:00,
2013-07-21 23:07:00,81.2,73.7,29.86,South,169,3.0,4.0,78,0.00,,---,0.00,0.00,VWS V14.00,2013-07-22 04:07:00,
2013-07-21 23:11:00,81.2,73.7,29.86,South,175,2.0,4.0,78,0.00,,---,0.00,0.00,VWS V14.00,2013-07-22 04:11:00,
2013-07-21 23:15:00,81.1,73.6,29.86,South,175,1.0,4.0,78,0.00,,---,0.00,0.00,VWS V14.00,2013-07-22 04:15:00,
2013-07-21 23:19:00,81.1,73.6,29.86,South,190,0.0,4.0,78,0.00,,---,0.00,0.00,VWS V14.00,2013-07-22 04:19:00,
2013-07-21 23:23:00,81.1,73.6,29.86,South,172,2.0,5.0,78,0.00,,---,0.00,0.00,VWS V14.00,2013-07-22 04:23:00,
2013-07-21 23:27:00,81.0,73.5,29.86,SSW,209,3.0,5.0,78,0.00,,---,0.00,0.00,VWS V14.00,2013-07-22 04:27:00,
2013-07-21 23:30:00,80.9,73.8,29.86,South,188,0.0,5.0,79,0.00,,---,0.00,0.00,VWS V14.00,2013-07-22 04:30:00,
2013-07-21 23:31:00,80.9,73.8,29.86,South,174,0.0,5.0,79,0.00,,---,0.00,0.00,VWS V14.00,2013-07-22 04:31:00,
2013-07-21 23:35:00,80.9,73.8,29.86,South,173,2.0,5.0,79,0.00,,---,0.00,0.00,VWS V14.00,2013-07-22 04:35:00,
2013-07-21 23:39:00,80.8,73.7,29.86,South,182,0.0,5.0,79,0.00,,---,0.00,0.00,VWS V14.00,2013-07-22 04:39:00,
2013-07-21 23:43:00,80.7,73.2,29.86,South,181,2.0,5.0,78,0.00,,---,0.00,0.00,VWS V14.00,2013-07-22 04:43:00,
2013-07-21 23:47:00,80.6,73.5,29.86,South,184,2.0,5.0,79,0.00,,---,0.00,0.00,VWS V14.00,2013-07-22 04:47:00,
2013-07-21 23:52:00,80.5,73.4,29.86,South,187,3.0,5.0,79,0.00,,---,0.00,0.00,VWS V14.00,2013-07-22 04:52:00,
2013-07-21 23:56:00,80.4,73.7,29.86,SSW,194,4.0,5.0,80,0.00,,---,0.00,0.00,VWS V14.00,2013-07-22 04:56:00,